[[{"header":{"parameterUnit":"m.s-1","parameterCategory":1,"la1":30.2991,"la2":30.254,"lo1":-89.0895,"lo2":-89.0444,"dy":0.0017,"dx":0.0017,"nx":28,"ny":28,"refTime":"2024-12-09T03:00:00:Z","depth":0,"parameterNumber":2,"parameterNumberName":"U-component_of_WINDS"},"data":[0,0,0,0,0,0,0,0,0,0,0,0,0,0,0,0,0,0,0,0,0,0,0,0,0,0,0,0,0,0,0,0,0,0,0,0,0,0,0,0,0,0,0,0,0,0,0,0,0,0,0,0,0,0,0,0,0,0,0.4612,0.4612,0,0.4638,0.4638,0.4639,0.4623,0.4622,0.4621,0.4621,0.4651,0.4653,0.4654,0,0,0,0,0,0,0,0,0,0,0,0,0,0.4551,0.4552,0.4611,0.4612,0.4612,0.4638,0.4638,0.4639,0.4623,0.4622,0.4621,0.462,0.4651,0.4652,0.4654,0,0,0,0,0,0,0,0,0,0,0,0,0,0.4577,0.4552,0.4611,0.4607,0.4607,0.4638,0.4638,0.4639,0.4623,0.4622,0.4621,0.462,0.465,0.4652,0.4655,0.4692,0,0,0.4662,0.4663,0,0,0,0,0,0,0,0,0.4576,0.458,0.4608,0.4608,0.4608,0.4626,0.4628,0.4657,0.4623,0.4617,0.4621,0.4619,0.4644,0.4647,0.4654,0.4693,0.4694,0.4662,0.4663,0.4664,0.4665,0,0,0,0,0,0,0,0.4574,0.4578,0.4622,0.4608,0.4608,0.4605,0.4608,0.4633,0.4637,0.4618,0.4617,0.462,0.4644,0.4652,0.4655,0.4695,0.4662,0.4664,0.4665,0.4666,0.4767,0.4768,0,0,0,0,0,0,0.4572,0.4577,0.4621,0.4623,0.4588,0.4607,0.461,0.4621,0.4636,0.4638,0.4621,0.4619,0.4649,0.4652,0.4656,0.4702,0.4664,0.4666,0.4668,0.4766,0.4767,0.4769,0,0,0,0,0,0,0.4571,0.4576,0.462,0.46,0.4605,0.461,0.4622,0.4622,0.4631,0.4639,0.464,0.4628,0.4648,0.4653,0.4683,0.4702,0.4667,0.4669,0.4764,0.4766,0.4768,0.4793,0,0,0,0,0,0,0.4569,0.4576,0.4589,0.46,0.4606,0.4646,0.4623,0.4624,0.4634,0.4632,0.4646,0.4647,0.4647,0.468,0.4685,0.4705,0.4671,0.4763,0.4765,0.4768,0.479,0.4795,0.48,0,0,0,0,0,0.4567,0.4595,0.459,0.4595,0.4623,0.4647,0.4651,0.4649,0.4636,0.465,0.4655,0.4647,0.4699,0.4683,0.4689,0.471,0.4761,0.4764,0.4767,0.4788,0.4794,0.4799,0,0,0,0,0,0,0.4588,0.4597,0.4591,0.4623,0.4634,0.4644,0.4662,0.4655,0.4671,0.4669,0.4667,0.4671,0.4703,0.4709,0.4691,0.4747,0.4728,0.4733,0.4742,0.4748,0.4753,0.4751,0.4673,0,0,0,0,0,0.4596,0.4614,0.4621,0.4649,0.4655,0.4658,0.4668,0.4666,0.4678,0.4683,0.469,0.4703,0.4722,0.4735,0.4753,0.479,0.4794,0.4808,0.4813,0.4816,0.4821,0.4842,0.4849,0.4779,0.4779,0.4778,0,0,0.4614,0.4621,0.4632,0.4654,0.4662,0.4682,0.4662,0.4683,0.4699,0.4686,0.4716,0.4721,0.4736,0.477,0.4786,0.4776,0.4841,0.482,0.4823,0.4825,0.4846,0.4853,0.4859,0.4781,0.478,0.478,0,0,0.4656,0.4662,0.4687,0.4696,0.4708,0.471,0.4716,0.4727,0.473,0.4759,0.475,0.4769,0.4802,0.4813,0.4823,0.4869,0.4863,0.4875,0.49,0.4921,0.4927,0.4932,0.495,0.4957,0.4879,0.4879,0.4879,0,0.4677,0.4705,0.4701,0.4723,0.4734,0.4722,0.4748,0.4757,0.4775,0.4783,0.4772,0.4814,0.4823,0.486,0.4871,0.4879,0.4887,0.4874,0.4926,0.4931,0.4936,0.4953,0.496,0.4881,0.488,0.488,0.488,0,0.4731,0.4751,0.4769,0.4786,0.4799,0.4823,0.4823,0.4836,0.4833,0.4836,0.4867,0.4876,0.4897,0.4905,0.4902,0.4943,0.4937,0.4926,0.4908,0.4944,0.4961,0.4967,0.4883,0.4882,0.4882,0.4881,0,0,0.4788,0.4802,0.4809,0.4817,0.483,0.4846,0.487,0.4889,0.4901,0.4914,0.4936,0.4964,0.4954,0.4965,0.4963,0.4982,0.502,0.4969,0.4969,0.498,0.5067,0.5076,0.5084,0.5015,0.5016,0.5017,0.5066,0,0.4832,0.4873,0.487,0.491,0.4929,0.4918,0.494,0.4951,0.4954,0.4972,0.4976,0.4997,0.4981,0.4988,0.5006,0.5012,0.5038,0.5008,0.5037,0.5038,0.5035,0.5092,0.5102,0.5148,0.5073,0.5074,0.5075,0,0.489,0.4904,0.4945,0.4956,0.4964,0.4983,0.5001,0.5017,0.503,0.5031,0.5044,0.5039,0.5065,0.5044,0.5081,0.506,0.5072,0.5077,0.5078,0.5083,0.506,0.51,0.5163,0.517,0.5084,0.5084,0.5083,0,0.493,0.4959,0.4988,0.4995,0.5008,0.5022,0.5028,0.5039,0.5051,0.5067,0.5075,0.5094,0.5104,0.512,0.5121,0.5105,0.5158,0.5137,0.5162,0.5162,0.5175,0.5174,0.5242,0.5179,0.5179,0.5179,0.5179,0,0.4981,0.5007,0.5006,0.5024,0.5053,0.505,0.5079,0.5084,0.5094,0.5114,0.5106,0.5125,0.5124,0.5143,0.5144,0.5175,0.518,0.5183,0.5183,0.5185,0.5185,0.5194,0.5191,0.5181,0.518,0.518,0.518,0,0.5031,0.5031,0.5062,0.5071,0.5074,0.5096,0.5104,0.5122,0.5124,0.515,0.5155,0.516,0.5182,0.5184,0.5211,0.5212,0.525,0.5246,0.5245,0.5245,0.527,0.5269,0.5348,0.5359,0.5287,0.5288,0.5288,0,0.5064,0.5084,0.5095,0.5107,0.5114,0.5134,0.5146,0.5143,0.5156,0.5173,0.5189,0.521,0.5228,0.5264,0.5271,0.5291,0.5289,0.5315,0.5292,0.5293,0.5292,0.5291,0.5294,0.532,0.5321,0.5322,0.5322,0,0.5124,0.5123,0.514,0.5157,0.5172,0.5186,0.5199,0.5209,0.5209,0.5224,0.5246,0.526,0.5286,0.5309,0.5329,0.5337,0.533,0.5329,0.5336,0.5339,0.5339,0.5341,0.526,0.5328,0.5327,0.5327,0.5327,0.5326,0.5167,0.5185,0.5196,0.5216,0.5225,0.5237,0.5255,0.5259,0.5278,0.5299,0.5296,0.5322,0.5335,0.5361,0.537,0.5391,0.5383,0.5392,0.5395,0.5398,0.5402,0.5334,0.5395,0.5395,0.5394,0.5394,0.5394,0,0.5228,0.5235,0.5253,0.5271,0.5287,0.5277,0.5292,0.5306,0.5328,0.534,0.5357,0.5384,0.5406,0.5414,0.5435,0.545,0.5448,0.5456,0.5456,0.5458,0.5407,0.54,0.5458,0.5458,0.5458,0.5458,0.5458,0.5458,0.5262,0.5292,0.5292,0.5327,0.5333,0.5358,0.5367,0.5379,0.5388,0.5418,0.5436,0.544,0.5451,0.5474,0.5494,0.5495,0.5505,0.5514,0.5515,0.5468,0.5462,0.5456,0.5449,0.5516,0.5516,0.5565,0.5565,0.5566]},{"header":{"parameterUnit":"m.s-1","parameterCategory":1,"la1":30.2991,"la2":30.254,"lo1":-89.0895,"lo2":-89.0444,"dy":0.0017,"dx":0.0017,"nx":28,"ny":28,"refTime":"2024-12-09T03:00:00:Z","depth":0,"parameterNumber":3,"parameterNumberName":"V-component_of_WINDS"},"data":[0,0,0,0,0,0,0,0,0,0,0,0,0,0,0,0,0,0,0,0,0,0,0,0,0,0,0,0,0,0,0,0,0,0,0,0,0,0,0,0,0,0,0,0,0,0,0,0,0,0,0,0,0,0,0,0,0,0,3.2665,3.2666,0,3.2745,3.2746,3.2747,3.273,3.2729,3.2727,3.2726,3.2807,3.281,3.2814,0,0,0,0,0,0,0,0,0,0,0,0,0,3.2498,3.2501,3.2665,3.2666,3.2667,3.2745,3.2746,3.2747,3.273,3.2729,3.2727,3.2725,3.2806,3.281,3.2814,0,0,0,0,0,0,0,0,0,0,0,0,0,3.2574,3.2502,3.2665,3.2668,3.2669,3.2745,3.2746,3.2747,3.2731,3.2729,3.2726,3.2724,3.2804,3.281,3.2815,3.2892,0,0,3.2831,3.2833,0,0,0,0,0,0,0,0,3.2569,3.258,3.2667,3.2668,3.267,3.2725,3.2717,3.2796,3.2731,3.2707,3.2726,3.2723,3.2782,3.2789,3.2808,3.2896,3.2899,3.2832,3.2835,3.2837,3.2839,0,0,0,0,0,0,0,3.2564,3.2576,3.2697,3.2668,3.267,3.2666,3.2674,3.2732,3.2756,3.2709,3.2708,3.2718,3.2782,3.2803,3.281,3.29,3.2831,3.2836,3.2839,3.2841,3.3056,3.3058,0,0,0,0,0,0,3.2558,3.2572,3.2694,3.2699,3.2613,3.267,3.268,3.271,3.2755,3.276,3.272,3.2717,3.2795,3.2804,3.2813,3.2907,3.2837,3.2842,3.2845,3.3053,3.3056,3.3059,0,0,0,0,0,0,3.2554,3.2569,3.2691,3.2635,3.2651,3.2676,3.2709,3.2712,3.2734,3.2763,3.2767,3.2737,3.2794,3.2806,3.2873,3.291,3.2844,3.2849,3.305,3.3054,3.3058,3.3096,0,0,0,0,0,0,3.255,3.2568,3.2597,3.2636,3.2654,3.275,3.2712,3.2716,3.2743,3.274,3.2781,3.2785,3.2793,3.2865,3.2878,3.2916,3.2853,3.3047,3.3052,3.3057,3.3092,3.3101,3.3109,0,0,0,0,0,3.2544,3.2605,3.2599,3.2614,3.2691,3.2752,3.2762,3.277,3.2746,3.2776,3.2795,3.2784,3.2903,3.2872,3.2886,3.2927,3.3045,3.3051,3.3056,3.3088,3.3099,3.3108,0,0,0,0,0,0,3.2569,3.261,3.2604,3.2679,3.2712,3.2749,3.2787,3.2781,3.2821,3.2817,3.2824,3.2834,3.2902,3.2921,3.2885,3.3004,3.2971,3.298,3.299,3.3001,3.3009,3.3004,3.2858,0,0,0,0,0,3.2583,3.2629,3.2662,3.2725,3.2742,3.2762,3.2788,3.2792,3.2826,3.284,3.2864,3.2898,3.2943,3.2972,3.3015,3.3094,3.3103,3.3129,3.3137,3.3144,3.3152,3.3196,3.3208,3.3078,3.3078,3.3078,0,0,3.2614,3.2641,3.267,3.2731,3.2757,3.2805,3.2774,3.2825,3.2861,3.2848,3.2913,3.2932,3.297,3.3043,3.3077,3.3061,3.319,3.3151,3.3156,3.3161,3.3203,3.3215,3.3226,3.3082,3.3081,3.308,0,0,3.2693,3.2719,3.2775,3.2802,3.2841,3.2854,3.2868,3.2905,3.2917,3.2983,3.2975,3.3017,3.3094,3.3122,3.3146,3.3237,3.3229,3.3251,3.3295,3.3338,3.3348,3.3358,3.3391,3.3403,3.3258,3.3258,3.3258,0,3.2726,3.2798,3.2804,3.2857,3.2885,3.2875,3.2933,3.2958,3.301,3.3029,3.301,3.3108,3.3133,3.3213,3.3236,3.3255,3.3271,3.3247,3.3346,3.3356,3.3364,3.3397,3.3409,3.3261,3.3261,3.326,3.326,0,3.2837,3.2886,3.2927,3.2978,3.301,3.3065,3.308,3.3111,3.3111,3.3126,3.3193,3.3223,3.3272,3.3291,3.3292,3.3372,3.3361,3.3344,3.3311,3.3379,3.341,3.3422,3.3264,3.3264,3.3263,3.3262,0,0,3.2936,3.299,3.3005,3.3028,3.3072,3.311,3.3164,3.3213,3.3241,3.3276,3.3323,3.3389,3.3374,3.3401,3.3405,3.3442,3.3514,3.3421,3.3422,3.3438,3.3606,3.3619,3.3634,3.3508,3.351,3.3512,3.3603,0,3.3021,3.3117,3.3125,3.3212,3.3259,3.325,3.3297,3.3329,3.3344,3.3386,3.3402,3.3449,3.3425,3.3442,3.3478,3.3497,3.3548,3.349,3.3552,3.3554,3.3544,3.3649,3.3664,3.3749,3.3615,3.3617,3.3618,0,3.3133,3.3173,3.3265,3.3303,3.3323,3.3365,3.3411,3.3451,3.3487,3.3495,3.3526,3.3524,3.358,3.3544,3.3622,3.3583,3.3608,3.3621,3.3625,3.3632,3.3591,3.3661,3.3776,3.3789,3.3637,3.3635,3.3634,0,3.3199,3.3275,3.334,3.3361,3.3406,3.3436,3.3456,3.349,3.3519,3.3558,3.3578,3.3623,3.3648,3.3683,3.3694,3.3666,3.3772,3.3736,3.3781,3.3781,3.3806,3.3804,3.3927,3.3819,3.3819,3.3818,3.3818,0,3.3294,3.3351,3.3371,3.3411,3.3475,3.3482,3.3545,3.3563,3.3594,3.3637,3.3632,3.3673,3.3684,3.3727,3.3736,3.38,3.3811,3.3819,3.3821,3.3821,3.382,3.3839,3.3834,3.3822,3.3821,3.382,3.382,0,3.3378,3.3394,3.3465,3.3502,3.3512,3.3558,3.3589,3.3628,3.3642,3.3698,3.3711,3.3733,3.3784,3.3798,3.3858,3.3864,3.394,3.3935,3.3928,3.3928,3.3973,3.397,3.4115,3.4135,3.4011,3.4012,3.4013,0,3.3439,3.3483,3.3525,3.3554,3.3576,3.3623,3.3653,3.3662,3.3693,3.3737,3.3771,3.3821,3.3862,3.3943,3.3965,3.4011,3.4009,3.4056,3.4016,3.4014,3.4012,3.401,3.4015,3.4064,3.4066,3.4067,3.4068,0,3.3546,3.3552,3.3595,3.3642,3.3678,3.3714,3.375,3.3774,3.3788,3.3823,3.3876,3.3907,3.3969,3.4019,3.4066,3.4087,3.408,3.408,3.4093,3.4094,3.4089,3.4094,3.3951,3.4077,3.4076,3.4075,3.4075,3.4075,3.3622,3.3661,3.3697,3.3746,3.3773,3.3807,3.3846,3.3864,3.3908,3.396,3.3962,3.4019,3.4054,3.4117,3.414,3.4184,3.417,3.4189,3.4194,3.4199,3.4204,3.4081,3.4192,3.4192,3.4192,3.4192,3.4192,0,3.373,3.3753,3.3798,3.3848,3.3886,3.3876,3.3915,3.3948,3.3998,3.4031,3.4072,3.4132,3.4181,3.4206,3.4254,3.4285,3.4283,3.4298,3.4296,3.4301,3.4213,3.4197,3.4298,3.4298,3.4298,3.4298,3.4298,3.4298,3.3791,3.3857,3.3867,3.3947,3.3969,3.4025,3.4048,3.4079,3.4106,3.4174,3.4214,3.423,3.4261,3.4311,3.4355,3.4361,3.438,3.4397,3.4401,3.4318,3.4307,3.4297,3.4283,3.44,3.44,3.4486,3.4487,3.4488]}]]